Overview Statistics Trail Chart Weather Telemetry Raw packets
 

This is the latest recevied weather packets stored in our database for station/object DG3NAD-21. If no packets are shown the sender has not sent any weather packets the latest 10 day(s).

<< 26 27 28 29 30 31 32 >>
Time Temp. Humidity Pressure Rain* Wind** Luminosity Snow
1787993806 22.78° C 54% 1019.8 hPa - - - -
1787992905 22.22° C 55% 1020 hPa - - - -
1787992005 22.22° C 56% 1019.9 hPa - - - -
1787991105 22.22° C 56% 1020 hPa - - - -
1787990205 21.67° C 57% 1020 hPa - - - -
1787989305 21.67° C 57% 1019.8 hPa - - - -
1787988405 20.56° C 59% 1019.8 hPa - - - -
1787987504 20.56° C 60% 1019.8 hPa - - - -
1787986604 20° C 60% 1019.8 hPa - - - -
1787985704 19.44° C 61% 1019.8 hPa - - - -
1787984804 18.89° C 61% 1019.7 hPa - - - -
1787983904 18.33° C 62% 1019.7 hPa - - - -
1787983004 18.33° C 61% 1019.7 hPa - - - -
1787982104 17.78° C 61% 1019.7 hPa - - - -
1787981204 17.78° C 60% 1019.4 hPa - - - -
1787980304 17.78° C 60% 1019.3 hPa - - - -
1787979404 17.78° C 59% 1019.2 hPa - - - -
1787978504 17.78° C 59% 1019 hPa - - - -
1787977604 17.78° C 59% 1018.9 hPa - - - -
1787976704 17.78° C 58% 1018.7 hPa - - - -
1787975803 18.33° C 58% 1018.7 hPa - - - -
1787974903 18.33° C 58% 1018.7 hPa - - - -
1787974003 18.33° C 58% 1018.8 hPa - - - -
1787973103 18.33° C 58% 1018.9 hPa - - - -
1787972203 18.89° C 59% 1019 hPa - - - -

* Rain since midnight (hover to see other rain measurements)
** Current wind speed in m/s (hover to see current wind gust speed)